User: anonymous   Login
Location: Huntsville
(41.2590°N, 111.7678°W)
Time: 03:13:02
(UTC+00:00)
Language:

A-11 Canister half - Orbit

View from above orbital plane
View from above orbital plane
View from above satellite
View from above satellite

Ground track
Ground track

The orbit data is extracted from the following two-line orbital elements,

1 00053U 60009E   21163.50260675 -.00000086  00000-0 -34501-5 0  9991
2 00053  47.2743 228.6495 0096641  65.6349 295.4492 12.17253955712423
Epoch (UTC): 12 June 2021 12:03:45
Eccentricity: 0.0096641
inclination: 47.2743°
perigee height: 1527 km
apogee height: 1681 km
right ascension of ascending node: 228.6495°
argument of perigee: 65.6349°
revolutions per day: 12.17253955
mean anomaly at epoch: 295.4492°
orbit number at epoch: 71242

The dashed part of the orbit path shows where the satellite is in the earth's shadow,  

DLR